Temperature
23 25 27 27 27 27 25 23 23 24 23 24 23 23 23 23 23 23 23 23 23 23 22 22 22 21 21 20 20 19 19 19 18 18 17 17 17 17 16 16 16 16 16 16
24 26 26 26 27 27 26 26 25 24 24 23 24 24 23 23 23 22 22 23 23 23 22 22 22 21 21 20 20 19 19 19 18 18 17 17 17 17 16 16 16 16 16 15
22 24 25 25 25 26 26 26 26 25 24 23 22 23 23 23 23 23 23 23 23 22 22 22 22 21 21 20 20 19 19 18 18 17 17 17 16 16 16 16 16 15 15 15
20 23 24 23 24 26 25 24 24 23 22 22 22 23 23 24 23 23 23 23 23 22 22 22 21 21 20 20 19 19 18 18 17 17 17 16 16 16 15 15 15 15 15 14
18 21 22 24 24 25 24 23 22 22 22 22 22 23 22 23 23 23 23 23 23 22 22 21 21 20 20 19 19 18 18 17 17 17 16 16 16 15 15 15 15 14 14 14
18 21 21 22 23 25 23 21 22 22 21 21 22 20 20 22 23 23 23 23 22 22 21 21 20 20 19 19 18 18 18 17 17 16 16 15 15 15 14 14 14 14 13 13
18 20 20 21 22 23 22 20 21 22 22 22 21 20 21 22 22 22 22 21 21 21 20 20 19 19 19 18 18 18 17 17 16 16 15 15 15 14 14 14 14 13 13 13
17 19 19 20 21 20 19 21 21 21 22 22 21 21 21 21 21 21 21 20 20 20 19 19 19 18 18 18 17 17 16 16 15 15 15 14 14 14 14 13 13 13 12 12
17 17 19 20 20 21 21 21 21 21 22 22 20 20 20 20 20 20 20 19 19 19 18 18 18 18 18 17 17 16 16 15 15 14 14 14 14 13 13 13 12 12 12 12
16 17 18 19 20 21 21 21 21 21 21 21 20 19 19 20 20 19 19 19 18 18 18 17 17 17 17 16 16 16 15 15 14 14 14 13 13 13 13 12 12 12 11 11
16 17 18 19 19 20 20 21 21 21 21 21 20 19 19 19 19 19 18 18 18 18 17 17 16 16 16 16 15 15 15 14 14 14 13 13 13 12 12 12 12 11 11 11
15 17 16 18 19 20 20 20 20 20 19 19 19 19 19 18 18 18 17 17 17 17 16 16 16 16 15 15 15 15 14 14 14 13 13 13 12 12 11 11 11 10 10 10
18 18 18 19 19 19 19 19 19 20 19 19 18 18 18 18 17 17 17 16 16 16 16 15 15 15 15 14 14 14 14 13 13 13 12 12 12 12 11 10 10 10 10 9
18 18 18 18 18 19 19 18 18 18 18 18 18 17 17 17 16 16 16 16 15 15 15 15 14 14 14 14 14 13 13 13 13 12 12 12 11 11 11 11 10 9 9 9
17 18 18 18 18 18 18 18 18 17 17 17 17 17 16 16 16 15 15 15 15 14 14 14 14 14 13 13 13 13 13 12 12 12 12 11 11 10 10 10 10 9 9 9
17 17 17 17 17 17 17 17 17 16 16 16 16 16 16 15 15 14 14 14 14 14 14 14 14 13 13 13 12 12 12 12 12 12 11 11 10 10 10 10 9 9 9 9
17 16 16 16 17 17 17 17 16 16 16 16 16 15 15 15 14 14 14 14 14 14 13 13 13 13 13 12 12 12 12 11 11 11 11 11 10 10 10 10 9 9 9 8
17 17 17 17 16 16 16 16 16 16 16 16 15 15 15 14 14 14 13 13 13 13 13 13 13 12 12 12 12 12 11 11 11 11 10 10 10 10 10 10 9 9 9 8
17 17 16 16 16 16 16 16 16 16 16 15 15 15 14 14 14 13 13 13 13 12 12 12 12 12 12 12 11 11 11 11 11 10 10 10 10 10 10 9 9 9 9 8
16 16 16 15 16 16 16 15 15 15 15 15 14 14 14 13 13 13 12 12 12 12 12 12 12 12 11 11 11 11 11 11 10 10 10 10 10 10 10 9 9 9 9 9
15 15 15 15 15 15 15 15 15 15 14 14 14 14 13 13 13 12 12 12 12 12 12 11 11 11 11 11 11 11 11 11 10 10 10 10 10 10 10 9 9 9 9 8
14 14 14 14 14 14 14 14 14 14 14 13 13 13 13 12 12 12 12 12 11 11 11 11 11 11 11 11 11 11 11 11 11 11 10 10 10 10 10 9 9 9 9 8
14 14 14 13 13 13 13 13 13 13 13 13 13 12 12 12 12 12 11 11 11 11 11 11 11 11 11 11 11 11 11 11 11 10 10 10 10 10 10 9 9 9 9 8
12 13 12 13 13 13 12 13 12 12 12 12 12 12 12 11 11 11 11 11 11 11 11 11 11 11 11 11 11 11 11 11 10 10 10 10 10 10 9 9 9 9 9 8
12 12 12 12 12 12 12 12 12 11 11 11 11 11 11 11 11 11 11 11 11 10 10 10 10 10 11 11 11 11 11 10 10 10 10 10 10 10 9 9 9 9 9 8
11 11 11 11 11 11 11 11 11 11 11 10 11 11 10 10 10 10 10 10 10 10 10 10 10 10 10 10 10 10 10 10 10 10 10 10 9 9 9 9 9 9 9 8
10 10 10 10 10 10 11 11 10 10 10 10 10 10 10 10 10 10 10 10 10 10 10 10 10 10 10 10 10 10 10 10 10 10 9 9 9 9 9 9 9 9 8 8
Wind_Speed
6 4 2 2 5 4 6 9 9 8 9 10 12 13 13 12 12 12 11 11 11 10 9 8 8 8 8 7 7 8 7 6 5 5 4 4 4 4 4 4 4 4 4 4
1 2 3 3 5 5 5 5 6 6 5 7 7 9 11 12 14 14 13 12 11 10 10 10 9 9 8 8 7 7 8 7 6 5 5 4 4 4 4 4 4 5 5 5
0 3 5 4 5 4 4 3 6 8 7 7 9 11 12 12 13 14 13 12 12 11 10 10 9 10 10 8 8 8 8 7 6 6 5 4 5 5 5 4 5 6 5 5
3 4 3 9 5 2 2 3 0 5 7 10 11 9 7 8 12 11 11 11 10 9 9 7 7 9 9 9 9 8 7 7 6 6 6 5 6 6 5 5 5 5 5 6
4 3 4 7 5 2 3 3 4 6 8 9 10 10 6 2 7 9 10 10 10 9 9 8 9 9 10 10 9 8 7 7 7 7 7 7 7 6 5 6 6 6 5 6
5 4 5 6 7 4 5 2 5 4 8 7 7 5 2 1 6 7 8 8 9 9 9 9 8 9 11 10 9 8 7 7 7 7 8 8 7 7 5 6 6 6 7 6
5 3 5 5 7 4 5 5 3 2 5 6 4 5 6 7 8 8 9 9 10 10 10 8 8 10 11 9 7 7 8 8 8 8 8 8 7 7 7 7 7 7 7 6
5 4 7 5 4 3 5 3 3 5 6 8 8 8 8 9 9 10 10 10 10 10 9 7 8 10 10 8 7 8 9 9 8 7 7 7 8 7 7 7 8 6 6 6
6 6 5 1 4 3 5 6 4 6 7 10 10 8 9 9 9 9 10 9 8 10 10 7 7 9 10 8 9 9 10 9 8 7 7 6 7 7 6 6 6 5 5 5
3 2 2 5 6 5 6 7 7 8 9 10 10 8 9 9 8 8 8 8 8 10 9 7 6 7 8 9 9 10 10 9 8 8 7 7 6 5 5 5 5 5 4 4
2 2 5 5 5 6 9 9 10 9 8 9 10 9 8 7 8 8 7 6 7 8 8 8 7 8 8 9 10 10 10 8 8 7 8 7 7 6 5 3 4 5 4 4
4 5 4 3 2 5 8 8 9 11 8 7 8 8 8 7 6 7 7 7 7 7 7 7 7 8 7 8 10 11 9 8 7 7 6 6 7 7 10 7 8 8 7 6
3 2 4 3 4 5 6 6 6 9 10 8 7 7 7 7 6 7 7 7 7 7 6 7 7 7 6 7 8 9 9 8 7 7 7 6 6 7 6 6 9 9 8 8
3 5 5 3 3 5 7 7 7 8 8 8 8 7 7 7 7 7 7 7 7 7 7 7 7 6 5 7 8 8 9 9 8 7 6 6 6 5 6 6 4 3 4 6
2 3 3 2 4 6 6 7 7 6 7 7 7 7 7 7 7 6 6 7 8 7 7 7 7 6 5 7 8 9 8 7 7 6 6 6 6 5 5 5 5 3 2 2
2 4 4 3 4 5 5 6 6 5 6 7 7 7 6 7 7 6 6 7 8 7 6 6 6 5 6 7 8 7 6 9 9 7 7 6 6 6 6 5 5 4 3 2
4 3 2 1 1 3 4 6 6 6 6 7 8 8 7 8 7 6 5 5 6 5 6 6 5 5 6 7 7 6 6 8 10 8 7 7 7 6 6 6 5 4 3 3
5 5 5 5 4 4 4 4 5 7 7 7 8 8 8 8 8 6 6 6 6 5 4 5 6 6 6 6 6 6 6 6 6 6 6 6 6 6 6 5 5 5 3 3
5 5 4 3 4 5 5 5 5 6 6 8 9 8 7 7 7 7 7 7 7 6 4 5 7 6 5 6 7 5 6 6 6 5 5 7 6 5 5 5 5 5 4 4
3 3 3 2 2 3 4 5 6 6 6 8 8 8 7 6 7 7 7 5 4 5 6 6 6 5 4 5 6 5 6 7 6 5 5 5 6 6 6 6 5 5 5 5
3 3 3 2 2 2 4 6 7 7 6 7 9 9 8 7 7 7 7 4 2 4 6 7 5 4 4 4 5 5 6 6 6 6 6 6 6 6 6 6 5 5 5 5
2 3 2 2 3 3 3 4 6 7 6 6 7 8 8 8 7 5 4 4 4 6 5 4 3 4 5 5 4 5 5 6 5 5 6 6 6 6 6 6 6 5 5 5
2 3 3 3 4 4 3 4 5 6 7 7 7 8 8 7 6 6 4 3 4 6 4 3 4 7 7 4 3 4 5 5 5 5 6 5 5 5 5 6 5 5 5 4
3 3 3 3 3 4 4 3 4 5 6 6 6 7 8 6 4 3 4 6 7 7 4 4 7 7 6 3 3 4 4 4 5 5 5 5 5 5 5 5 4 4 4 5
3 3 3 3 3 3 4 5 5 6 6 5 6 6 5 4 5 5 5 6 7 6 4 4 6 6 4 4 4 4 4 4 5 6 5 5 5 5 5 5 5 4 4 4
2 2 2 2 3 3 4 5 5 4 5 5 5 5 4 4 5 5 5 5 6 6 4 3 3 4 3 4 4 4 4 4 5 5 5 5 5 5 5 5 5 4 4 4
2 2 3 3 2 3 4 5 5 5 5 6 6 4 4 4 4 5 5 5 4 4 3 3 3 3 3 4 4 4 4 4 4 5 5 4 4 4 4 5 4 4 4 4
Wind_Direction
191 200 161 240 258 232 185 185 185 213 198 204 188 176 166 157 152 148 155 157 158 156 156 152 147 149 150 151 152 148 143 139 139 138 132 123 115 108 97 85 80 72 63 54
65 36 36 338 302 274 236 204 192 175 212 212 177 148 149 156 155 156 162 166 162 156 154 155 155 154 148 150 153 147 145 143 138 132 124 121 117 108 98 86 77 71 64 61
218 3 42 307 272 262 256 239 181 186 203 159 134 141 156 161 160 165 165 164 163 163 162 163 161 156 151 150 148 146 147 143 140 141 133 129 120 103 94 86 82 75 65 66
104 73 208 244 266 202 108 355 155 147 151 148 147 147 139 152 156 160 164 162 163 160 154 151 145 143 142 141 141 142 141 136 138 135 128 119 109 101 93 89 86 80 69 66
114 148 277 300 324 353 107 8 1 117 125 130 120 86 53 76 146 156 159 156 154 152 145 138 137 140 134 134 135 135 135 135 136 133 127 119 109 101 95 92 84 76 70 66
122 147 211 257 302 312 103 35 331 111 126 133 110 111 176 134 116 117 124 128 131 130 126 127 131 129 126 127 126 129 131 129 126 124 121 119 114 106 98 96 92 86 72 61
142 177 247 269 306 22 114 211 283 93 119 116 116 153 150 124 107 106 112 117 120 121 126 131 128 124 124 124 127 125 117 111 109 113 118 119 116 113 110 105 96 87 81 62
146 170 244 298 20 111 186 188 104 86 91 94 97 102 105 106 106 108 108 111 115 117 115 119 125 128 127 128 127 117 111 107 108 110 113 115 115 111 108 108 102 94 87 69
173 197 233 325 125 147 138 113 97 98 103 106 105 108 108 106 108 107 107 111 114 117 115 112 116 126 130 132 126 120 113 110 106 98 91 98 109 112 111 108 107 103 98 89
98 130 98 77 77 75 86 98 101 108 110 109 112 114 112 111 110 107 104 113 116 119 121 119 117 120 128 130 128 124 121 117 111 104 95 84 86 96 108 110 111 110 108 105
109 141 78 56 72 90 85 86 90 91 97 108 116 118 120 119 117 116 113 108 114 121 125 127 125 124 129 131 129 125 123 119 113 109 108 94 80 70 89 92 133 137 137 133
193 207 150 170 154 109 98 100 112 109 98 96 112 119 118 122 123 120 120 116 115 116 122 129 131 131 136 139 137 134 130 129 125 121 115 113 108 86 60 75 89 102 115 122
181 166 133 131 94 92 94 98 109 111 115 109 102 111 114 118 119 119 119 119 123 127 126 128 128 131 137 138 137 138 139 138 134 132 131 129 126 122 109 69 67 75 92 104
99 91 71 71 96 99 98 91 90 99 103 109 112 110 108 109 113 120 128 131 127 127 127 127 127 130 136 136 136 137 138 142 143 145 142 140 136 130 128 128 112 66 53 86
44 96 141 126 98 103 106 98 92 102 107 106 112 117 119 122 128 132 131 130 127 129 132 135 138 141 137 134 135 136 137 144 145 144 142 141 137 134 131 128 127 123 97 58
95 75 75 82 107 112 120 118 121 133 133 128 127 132 132 130 130 130 128 133 138 142 146 145 148 148 140 138 136 134 140 147 146 144 144 143 143 143 144 142 139 140 147 155
138 138 137 164 144 126 140 149 155 159 148 143 146 141 134 127 124 128 130 128 132 135 138 141 141 135 135 139 138 141 142 148 144 141 147 152 152 155 156 155 156 162 177 184
164 170 183 185 175 157 157 164 168 161 154 154 146 138 140 143 147 149 142 128 120 116 123 136 137 134 135 138 142 144 143 144 147 148 150 154 156 158 158 160 165 168 172 169
149 157 176 183 177 160 163 166 163 155 150 149 147 147 149 150 150 150 144 139 139 144 156 147 141 140 144 147 144 144 145 146 146 148 149 155 156 157 162 168 173 175 172 166
110 134 143 146 148 153 158 156 149 144 146 146 144 143 144 145 145 143 140 145 163 167 160 150 146 147 147 152 147 150 153 153 153 155 154 158 164 168 172 175 174 174 175 174
105 100 89 90 108 128 143 145 143 146 149 150 152 155 154 149 146 144 139 142 161 145 144 144 145 146 145 145 147 151 154 156 161 165 164 164 165 167 167 169 171 175 174 174
93 106 100 105 106 96 113 130 139 143 145 145 147 146 143 143 144 140 142 156 158 146 141 143 146 151 152 143 145 152 158 162 166 167 167 166 166 168 167 166 168 171 171 172
82 87 94 114 125 119 103 114 131 139 144 147 151 151 149 150 152 150 154 165 148 143 138 150 158 153 151 150 145 150 158 164 165 165 166 166 168 169 169 168 169 168 168 171
73 77 95 107 114 114 114 122 125 130 134 135 138 141 142 140 134 142 148 147 144 137 138 153 154 151 147 144 142 149 154 157 158 158 157 156 155 155 158 158 158 164 169 169
91 95 104 112 122 134 135 126 118 118 120 122 121 123 131 142 149 150 142 143 145 138 142 157 155 147 135 129 127 132 141 148 148 146 146 148 151 151 153 156 164 171 174 179
103 120 126 127 132 131 129 124 122 122 124 125 120 120 121 122 128 134 134 141 145 144 147 150 146 138 125 122 124 132 144 147 141 141 146 149 151 153 158 168 174 177 180 187
84 94 103 95 88 104 118 122 126 127 129 132 127 123 126 128 130 132 132 136 141 143 140 134 129 126 120 122 122 124 125 128 132 138 143 148 149 153 162 165 172 179 183 187
Height
1506 1502 1500 1503 1503 1503 1511 1520 1528 1523 1520 1513 1508 1508 1511 1515 1518 1521 1524 1527 1529 1532 1535 1538 1540 1542 1544 1546 1547 1548 1549 1550 1550 1550 1550 1550 1550 1550 1550 1550 1550 1550 1549 1549
1505 1499 1499 1502 1500 1500 1502 1504 1510 1511 1512 1503 1504 1508 1511 1514 1516 1519 1522 1525 1528 1531 1534 1536 1539 1541 1543 1545 1546 1548 1549 1549 1549 1550 1550 1550 1550 1550 1550 1550 1550 1549 1549 1549
1517 1506 1504 1514 1503 1500 1500 1497 1501 1508 1506 1502 1505 1507 1509 1511 1513 1516 1519 1522 1526 1529 1532 1534 1537 1539 1541 1543 1546 1547 1547 1548 1549 1550 1550 1550 1550 1550 1550 1550 1550 1549 1549 1548
1519 1515 1526 1513 1494 1493 1497 1497 1494 1495 1497 1499 1502 1505 1508 1510 1512 1515 1518 1522 1525 1528 1530 1533 1536 1538 1541 1542 1544 1545 1546 1547 1548 1549 1549 1550 1550 1550 1550 1550 1549 1549 1549 1548
1525 1526 1520 1504 1494 1494 1498 1503 1497 1496 1498 1500 1502 1505 1510 1512 1513 1515 1518 1520 1523 1526 1528 1531 1534 1537 1539 1541 1542 1544 1545 1546 1547 1548 1548 1549 1549 1550 1550 1550 1549 1549 1548 1548
1522 1525 1527 1510 1495 1491 1495 1510 1500 1497 1498 1500 1501 1511 1514 1513 1514 1517 1519 1521 1523 1526 1528 1531 1533 1536 1538 1540 1541 1543 1544 1545 1546 1547 1548 1548 1549 1549 1549 1549 1549 1549 1548 1548
1519 1521 1516 1500 1494 1492 1511 1513 1501 1499 1499 1500 1503 1507 1510 1512 1514 1517 1519 1521 1523 1526 1528 1530 1532 1535 1537 1538 1540 1542 1544 1544 1545 1546 1547 1547 1548 1548 1549 1549 1549 1549 1549 1548
1519 1523 1520 1497 1495 1501 1504 1500 1500 1500 1501 1502 1504 1507 1510 1512 1514 1517 1519 1521 1524 1526 1528 1531 1533 1535 1536 1538 1540 1542 1543 1544 1545 1546 1547 1547 1547 1548 1548 1549 1549 1549 1549 1549
1508 1511 1501 1496 1496 1498 1498 1499 1500 1501 1503 1504 1507 1510 1512 1513 1515 1518 1519 1522 1524 1527 1528 1531 1532 1534 1535 1537 1539 1540 1542 1543 1544 1546 1546 1547 1547 1547 1548 1548 1549 1549 1549 1549
1503 1502 1499 1498 1498 1498 1499 1499 1501 1502 1504 1505 1508 1511 1513 1514 1516 1518 1520 1522 1524 1526 1528 1530 1532 1533 1534 1535 1538 1539 1540 1542 1543 1544 1545 1546 1547 1547 1548 1548 1548 1549 1549 1549
1503 1502 1501 1501 1501 1501 1501 1502 1502 1504 1506 1508 1510 1512 1514 1516 1517 1519 1521 1523 1525 1526 1527 1529 1531 1533 1534 1536 1537 1538 1540 1541 1542 1544 1545 1546 1546 1547 1548 1548 1549 1549 1550 1550
1504 1500 1500 1503 1503 1502 1502 1503 1504 1505 1507 1510 1511 1513 1515 1516 1518 1519 1521 1523 1524 1526 1527 1529 1531 1532 1534 1535 1536 1537 1539 1540 1541 1543 1544 1545 1545 1547 1548 1549 1549 1550 1550 1550
1498 1498 1499 1501 1502 1503 1503 1505 1506 1506 1508 1509 1512 1514 1515 1516 1518 1520 1521 1523 1524 1526 1527 1529 1531 1532 1533 1534 1535 1537 1538 1539 1540 1542 1543 1545 1545 1546 1547 1549 1549 1550 1551 1551
1497 1498 1500 1501 1502 1503 1504 1505 1507 1507 1509 1510 1513 1515 1516 1517 1519 1520 1522 1523 1525 1526 1527 1528 1530 1531 1532 1533 1534 1536 1537 1539 1540 1542 1543 1545 1546 1547 1548 1548 1549 1550 1551 1552
1499 1500 1501 1502 1502 1503 1505 1506 1507 1508 1509 1511 1513 1515 1516 1518 1519 1520 1522 1523 1524 1525 1526 1528 1529 1530 1531 1533 1534 1536 1537 1539 1540 1542 1543 1545 1546 1547 1548 1549 1550 1550 1551 1552
1501 1501 1501 1502 1502 1503 1505 1505 1506 1508 1509 1511 1513 1515 1517 1518 1519 1520 1522 1523 1524 1525 1526 1527 1528 1529 1531 1532 1534 1535 1537 1538 1540 1541 1543 1544 1546 1547 1548 1549 1550 1551 1552 1553
1499 1500 1502 1502 1502 1503 1503 1504 1505 1507 1509 1510 1512 1514 1516 1517 1519 1520 1521 1523 1524 1525 1526 1527 1528 1529 1531 1532 1534 1535 1537 1538 1540 1542 1543 1545 1546 1547 1549 1550 1551 1552 1553 1554
1497 1498 1500 1501 1501 1501 1502 1503 1505 1506 1507 1509 1511 1512 1514 1516 1517 1519 1521 1522 1523 1524 1526 1527 1528 1529 1530 1532 1533 1534 1536 1538 1540 1541 1543 1545 1546 1548 1549 1550 1551 1552 1553 1554
1495 1497 1498 1498 1499 1499 1500 1501 1503 1504 1505 1507 1509 1511 1513 1515 1516 1518 1520 1521 1522 1523 1525 1527 1528 1529 1530 1532 1533 1535 1536 1538 1540 1542 1543 1545 1547 1548 1549 1551 1552 1553 1554 1555
1493 1495 1496 1496 1497 1497 1498 1499 1500 1502 1504 1506 1508 1509 1511 1514 1515 1517 1518 1520 1521 1522 1524 1526 1528 1529 1530 1532 1534 1535 1537 1538 1540 1542 1543 1545 1546 1548 1549 1550 1552 1553 1554 1555
1492 1493 1493 1494 1495 1496 1496 1497 1498 1500 1502 1504 1506 1508 1510 1512 1514 1516 1517 1519 1521 1522 1524 1526 1527 1528 1530 1532 1534 1535 1537 1538 1540 1541 1543 1544 1546 1547 1548 1550 1551 1552 1553 1554
1490 1491 1491 1492 1493 1493 1494 1495 1497 1498 1500 1502 1504 1506 1509 1510 1512 1514 1516 1518 1520 1522 1523 1525 1526 1528 1530 1531 1533 1534 1536 1538 1539 1540 1542 1544 1545 1546 1548 1549 1550 1551 1552 1553
1489 1489 1490 1491 1492 1492 1493 1494 1495 1496 1498 1500 1502 1505 1507 1509 1511 1512 1514 1517 1519 1521 1523 1525 1526 1528 1529 1531 1532 1534 1535 1537 1538 1540 1541 1543 1544 1545 1547 1548 1549 1550 1551 1552
1487 1488 1489 1490 1491 1491 1492 1493 1494 1496 1497 1499 1501 1504 1506 1508 1510 1513 1515 1517 1519 1521 1523 1524 1526 1528 1529 1531 1532 1533 1535 1536 1538 1539 1541 1542 1543 1544 1546 1547 1548 1549 1550 1551
1487 1487 1488 1489 1490 1490 1491 1492 1494 1495 1497 1499 1501 1504 1506 1508 1510 1512 1514 1517 1519 1520 1522 1524 1526 1528 1529 1530 1532 1533 1534 1536 1537 1538 1540 1541 1542 1544 1545 1546 1547 1548 1549 1550
1486 1487 1488 1488 1489 1490 1491 1492 1494 1495 1497 1499 1501 1504 1506 1508 1511 1513 1514 1516 1519 1520 1522 1524 1525 1527 1529 1530 1532 1533 1534 1536 1537 1538 1539 1541 1542 1543 1544 1546 1547 1548 1548 1549
1487 1487 1488 1488 1489 1490 1491 1493 1494 1496 1498 1500 1501 1504 1507 1509 1511 1513 1515 1517 1519 1520 1522 1524 1526 1527 1529 1530 1532 1533 1534 1536 1537 1538 1539 1540 1542 1543 1544 1545 1545 1546 1546 1547